Vorticity
5 6 4 5 4 9 6 6 5 5 4 4 3 3 3 2 2 3 3 4 5 5 5 5 6 5 7 7 6 4 3 2 3 3 2 2 3 3 2 2 3 2 2
8 6 6 5 5 8 6 5 6 5 4 3 2 3 2 2 3 4 5 5 5 4 6 5 7 6 4 3 2 2 3 3 3 3 4 5 3 2 4 3 3 3 4
6 6 6 6 5 7 6 5 5 5 3 3 3 2 3 4 4 6 5 5 4 6 5 6 4 3 4 3 1 3 5 4 3 3 3 2 5 5 5 6 6 5 5
8 7 5 6 5 8 6 5 5 3 3 2 3 3 4 4 5 6 5 5 7 5 5 4 3 4 3 4 4 3 1 0 3 5 5 4 -0 4 4 5 6 6 7
6 7 8 7 7 7 5 5 4 4 4 4 4 4 4 5 5 5 4 6 6 5 4 3 3 4 4 3 2 2 3 5 4 3 1 2 4 2 2 4 6 6 6
6 8 7 6 6 8 5 7 5 4 4 4 4 5 5 5 5 5 4 6 4 3 3 3 3 4 3 2 3 2 2 2 4 2 0 0 1 3 4 5 7 8 7
7 7 7 7 7 8 5 7 5 5 5 5 5 5 5 6 6 5 5 6 5 3 3 4 4 3 1 2 2 1 2 2 1 0 0 2 3 3 2 8 8 6 5
7 8 6 7 8 8 6 6 5 5 5 5 5 6 6 6 6 5 6 5 4 4 5 5 3 2 1 2 2 3 2 -0 -2 -1 1 3 3 2 7 8 6 4 4
7 7 9 9 9 7 6 6 5 5 5 5 5 5 5 5 5 5 5 4 5 5 5 4 3 1 -0 1 2 3 2 1 3 6 6 3 2 6 9 6 4 3 4
8 8 10 10 9 7 8 6 5 5 5 3 4 4 5 5 5 5 5 5 4 4 4 4 2 -0 1 3 3 4 2 2 2 1 2 1 5 9 6 4 3 4 6
9 10 10 10 8 7 8 6 5 5 4 6 6 3 -2 2 3 4 5 4 4 4 4 4 6 5 5 1 2 3 2 1 5 5 2 3 9 6 5 4 4 7 6
9 13 9 8 9 11 11 10 8 4 5 3 -4 1 2 4 4 4 5 5 5 4 5 4 3 4 4 4 2 3 3 -0 1 5 3 9 7 5 4 4 8 8 19
4 0 2 0 -1 1 4 3 1 -0 -1 -11 -4 7 -5 7 4 4 4 4 5 5 7 4 5 4 7 6 4 2 2 2 2 6 7 7 5 4 4 8 10 19 24
6 5 4 3 1 1 4 0 -1 1 0 1 9 1 1 5 3 3 3 4 5 5 3 1 3 5 3 4 3 3 4 3 6 6 6 6 5 3 9 11 17 24 13
2 0 0 0 -0 7 5 6 6 9 11 13 14 11 7 0 1 5 6 4 4 2 4 3 2 4 2 4 6 4 3 3 6 6 7 5 4 8 10 13 24 16 9
3 1 6 2 2 4 2 5 6 7 6 5 10 13 11 15 19 15 5 9 6 3 8 6 4 4 2 3 4 4 2 4 6 8 5 4 6 8 15 18 19 6 5
6 3 -1 -4 7 5 5 4 5 8 5 10 3 6 9 8 1 11 14 7 1 -2 11 8 8 5 4 5 4 2 4 5 7 6 5 6 8 11 17 23 12 6 6
3 -6 -0 2 5 5 6 5 5 8 5 5 4 10 12 12 17 8 8 4 13 12 9 7 9 8 5 3 4 4 3 5 8 6 5 8 7 17 17 11 5 8 14
2 -6 3 4 6 3 4 4 5 3 4 5 5 8 8 9 10 11 11 10 9 8 8 10 9 8 7 6 3 2 5 9 6 5 6 8 11 19 15 6 7 9 10
-1 -4 0 8 4 3 4 4 2 3 5 4 5 5 8 9 10 8 8 9 10 10 11 10 9 7 7 4 3 5 10 6 5 5 8 8 14 18 7 6 6 8 9
-1 -5 5 4 2 1 2 2 2 1 2 4 4 6 6 5 11 9 6 8 8 9 9 8 7 6 4 4 7 9 6 5 5 6 8 6 16 12 5 3 3 4 6
10 6 2 3 2 2 1 2 2 1 3 3 4 4 6 8 5 7 8 6 5 5 6 5 4 5 6 8 5 7 5 5 5 7 8 7 19 9 4 4 3 3 6
5 4 -2 1 0 -3 2 1 2 1 2 2 2 5 6 6 7 6 6 6 7 7 6 6 6 6 6 5 6 5 5 5 6 7 7 10 21 8 3 3 4 5 6
24 14 12 2 3 3 4 2 2 1 4 3 2 3 5 7 6 6 5 4 4 4 5 6 6 6 6 7 6 5 6 6 6 7 7 9 24 9 2 4 6 5 7
-32 27 22 -3 8 5 -0 2 2 2 3 1 2 3 5 7 8 5 4 4 4 5 6 7 7 7 7 6 5 5 5 5 6 7 7 8 23 10 2 4 4 5 9
8 2 -11 9 11 -7 2 -2 1 3 2 1 -0 -1 7 5 9 6 5 5 4 5 6 8 8 8 6 5 5 5 5 6 6 7 8 8 17 9 7 3 3 6 11
Height
5874 5875 5877 5878 5879 5880 5880 5881 5883 5884 5885 5886 5887 5888 5888 5889 5888 5888 5888 5888 5888 5888 5888 5888 5887 5887 5886 5886 5885 5884 5884 5883 5882 5881 5880 5879 5878 5877 5876 5874 5872 5870 5868
5872 5873 5875 5876 5878 5879 5880 5881 5882 5884 5885 5886 5887 5888 5888 5888 5888 5888 5888 5888 5888 5888 5888 5888 5888 5887 5886 5886 5885 5885 5884 5883 5883 5881 5880 5878 5877 5875 5874 5872 5870 5868 5866
5869 5871 5873 5874 5876 5878 5879 5880 5882 5883 5885 5886 5886 5887 5888 5888 5888 5888 5888 5888 5887 5888 5888 5888 5888 5888 5887 5886 5886 5885 5884 5883 5882 5880 5879 5878 5875 5874 5872 5869 5867 5865 5862
5867 5868 5870 5872 5874 5876 5878 5879 5881 5882 5884 5885 5886 5886 5887 5887 5887 5887 5887 5887 5886 5887 5887 5887 5887 5887 5887 5886 5885 5884 5883 5882 5881 5879 5877 5876 5874 5871 5869 5866 5864 5861 5858
5864 5866 5867 5870 5872 5874 5876 5878 5880 5882 5883 5884 5885 5885 5885 5886 5886 5886 5886 5887 5886 5886 5886 5887 5886 5886 5885 5885 5884 5883 5882 5881 5879 5877 5875 5873 5871 5869 5866 5863 5860 5857 5853
5863 5864 5866 5867 5870 5872 5874 5876 5878 5880 5881 5882 5884 5884 5885 5885 5885 5885 5886 5886 5886 5886 5886 5886 5886 5885 5884 5884 5883 5882 5881 5879 5878 5875 5873 5871 5868 5864 5861 5858 5855 5851 5848
5860 5862 5864 5866 5868 5870 5872 5875 5877 5879 5880 5881 5882 5883 5884 5884 5884 5884 5885 5885 5885 5885 5885 5885 5885 5884 5884 5883 5882 5881 5879 5877 5876 5873 5871 5867 5864 5861 5857 5854 5850 5847 5842
5857 5859 5861 5863 5865 5868 5870 5872 5875 5877 5878 5880 5881 5882 5882 5883 5883 5883 5883 5884 5884 5884 5884 5884 5883 5883 5882 5881 5880 5879 5877 5875 5874 5871 5868 5864 5861 5857 5854 5850 5845 5841 5836
5854 5856 5858 5860 5863 5865 5868 5870 5873 5875 5877 5878 5879 5880 5880 5881 5881 5882 5882 5882 5882 5882 5882 5882 5881 5880 5880 5879 5878 5876 5874 5872 5870 5867 5864 5861 5857 5853 5849 5845 5840 5835 5830
5850 5853 5855 5857 5860 5863 5866 5868 5871 5873 5875 5876 5877 5878 5878 5879 5879 5880 5880 5880 5880 5880 5880 5879 5879 5878 5877 5876 5875 5873 5871 5869 5866 5863 5860 5856 5852 5848 5843 5838 5833 5827 5821
5848 5850 5853 5855 5858 5861 5863 5866 5868 5870 5872 5873 5874 5875 5876 5876 5876 5877 5877 5877 5877 5877 5877 5876 5875 5875 5874 5873 5871 5870 5867 5865 5862 5859 5855 5852 5847 5842 5837 5831 5825 5818 5812
5845 5849 5850 5853 5856 5859 5861 5864 5866 5868 5869 5871 5871 5872 5873 5873 5874 5874 5874 5874 5874 5874 5874 5873 5872 5871 5870 5869 5867 5866 5863 5860 5857 5854 5851 5846 5841 5836 5830 5824 5817 5810 5803
5841 5846 5849 5851 5854 5857 5859 5861 5863 5865 5867 5867 5869 5870 5870 5871 5871 5871 5871 5871 5871 5870 5870 5869 5868 5867 5866 5865 5863 5862 5859 5856 5853 5850 5846 5841 5836 5830 5824 5817 5810 5802 5796
5838 5841 5845 5848 5851 5853 5856 5858 5860 5862 5863 5864 5865 5866 5866 5866 5866 5866 5867 5867 5867 5866 5866 5865 5864 5863 5862 5861 5859 5857 5855 5851 5848 5844 5840 5836 5830 5824 5818 5811 5803 5796 5791
5834 5837 5841 5844 5847 5850 5852 5853 5855 5857 5858 5859 5860 5861 5861 5861 5861 5861 5862 5862 5862 5862 5861 5861 5860 5859 5857 5856 5855 5853 5850 5847 5844 5840 5835 5830 5824 5818 5811 5804 5798 5793 5789
5827 5832 5836 5840 5843 5845 5847 5849 5851 5852 5853 5854 5855 5855 5856 5856 5856 5856 5856 5857 5857 5857 5856 5856 5855 5854 5853 5851 5850 5848 5845 5842 5839 5835 5830 5825 5819 5812 5805 5799 5793 5789 5785
5820 5824 5828 5834 5838 5841 5843 5845 5846 5848 5849 5850 5851 5850 5850 5850 5850 5850 5851 5852 5852 5852 5851 5850 5850 5849 5848 5847 5845 5843 5840 5837 5833 5830 5824 5819 5813 5807 5801 5795 5791 5786 5781
5810 5816 5822 5826 5831 5835 5838 5840 5842 5843 5845 5846 5846 5846 5845 5845 5845 5846 5846 5847 5847 5846 5845 5845 5844 5843 5843 5842 5840 5837 5835 5832 5828 5824 5819 5813 5808 5803 5797 5793 5789 5784 5779
5803 5810 5814 5820 5824 5828 5831 5834 5837 5838 5840 5841 5841 5841 5841 5841 5841 5841 5841 5841 5841 5841 5840 5839 5838 5838 5838 5837 5835 5832 5830 5827 5823 5818 5814 5809 5803 5797 5793 5790 5786 5781 5776
5795 5802 5808 5815 5818 5821 5824 5828 5831 5833 5835 5836 5837 5837 5837 5837 5837 5837 5836 5836 5836 5835 5834 5834 5833 5833 5832 5831 5829 5827 5824 5821 5817 5813 5808 5803 5798 5794 5790 5787 5783 5778 5774
5784 5794 5802 5807 5811 5815 5818 5821 5825 5827 5829 5831 5832 5832 5833 5833 5832 5832 5832 5831 5830 5829 5829 5828 5828 5828 5827 5825 5823 5821 5819 5816 5812 5808 5803 5798 5794 5790 5787 5783 5780 5776 5772
5778 5786 5793 5799 5803 5807 5812 5815 5818 5821 5823 5825 5826 5827 5827 5828 5828 5827 5827 5826 5826 5824 5824 5823 5823 5822 5821 5820 5818 5816 5813 5809 5806 5802 5797 5793 5789 5786 5784 5780 5776 5773 5769
5771 5777 5785 5791 5795 5800 5805 5808 5811 5814 5817 5819 5821 5821 5822 5822 5822 5822 5822 5822 5821 5820 5819 5818 5817 5816 5815 5814 5812 5810 5807 5804 5800 5796 5792 5788 5784 5781 5779 5775 5772 5769 5766
5759 5766 5774 5781 5787 5792 5796 5800 5803 5807 5810 5812 5814 5816 5816 5816 5816 5817 5817 5816 5816 5815 5814 5813 5812 5810 5809 5808 5806 5804 5801 5798 5794 5791 5787 5782 5779 5776 5774 5771 5768 5765 5762
5749 5760 5764 5771 5778 5784 5788 5792 5796 5800 5803 5805 5807 5809 5810 5810 5810 5811 5810 5810 5810 5809 5808 5807 5805 5804 5803 5802 5800 5797 5794 5791 5788 5785 5781 5777 5774 5771 5769 5765 5763 5760 5758
5745 5750 5757 5763 5768 5773 5777 5782 5788 5793 5795 5798 5800 5801 5803 5804 5804 5804 5804 5803 5803 5802 5801 5800 5798 5797 5796 5794 5792 5790 5788 5785 5782 5778 5774 5770 5767 5765 5763 5760 5758 5754 5752